date,time,SUV Intensity [MED/Hr],UV Index,Daily total [MED],Since Last [MED]
26/06/2022,00:09:41,0.001,0.0,0.0,0.0
26/06/2022,00:10:49,0.000,0.0,0.0,0.0
26/06/2022,00:11:41,-0.000,0.0,0.0,0.0
26/06/2022,00:12:41,0.000,0.0,0.0,0.0
26/06/2022,00:13:49,-0.000,0.0,0.0,0.0
26/06/2022,00:14:40,0.000,0.0,0.0,0.0
26/06/2022,00:15:40,0.000,0.0,0.0,0.0
26/06/2022,00:16:41,0.000,0.0,0.0,0.0
26/06/2022,00:17:41,0.000,0.0,0.0,0.0
26/06/2022,00:18:41,0.000,0.0,0.0,0.0
26/06/2022,00:19:41,0.000,0.0,0.0,0.0
26/06/2022,00:20:41,0.000,0.0,0.0,0.0
26/06/2022,00:21:40,0.002,0.0,0.0,0.0
26/06/2022,00:22:41,-0.000,0.0,0.0,0.0
26/06/2022,00:23:40,-0.000,0.0,0.0,0.0
26/06/2022,00:24:41,-0.000,0.0,0.0,0.0
26/06/2022,00:25:40,0.001,0.0,0.0,0.0
26/06/2022,00:26:49,0.000,0.0,0.0,0.0
26/06/2022,00:27:40,0.000,0.0,0.0,0.0
26/06/2022,00:28:40,0.001,0.0,0.0,0.0
26/06/2022,00:29:41,0.000,0.0,0.0,0.0
26/06/2022,00:30:41,0.000,0.0,0.0,0.0
26/06/2022,00:31:41,0.001,0.0,0.0,0.0
26/06/2022,00:32:40,0.000,0.0,0.0,0.0
26/06/2022,00:33:41,0.001,0.0,0.0,0.0
26/06/2022,00:34:41,0.000,0.0,0.0,0.0
26/06/2022,00:35:41,0.000,0.0,0.0,0.0
26/06/2022,00:36:41,0.001,0.0,0.0,0.0
26/06/2022,00:37:41,0.000,0.0,0.0,0.0
26/06/2022,00:38:41,0.000,0.0,0.0,0.0
26/06/2022,00:39:41,-0.000,0.0,0.0,0.0
26/06/2022,00:40:41,0.000,0.0,0.0,0.0
26/06/2022,00:41:49,-0.000,0.0,0.0,0.0
26/06/2022,00:42:40,0.000,0.0,0.0,0.0
26/06/2022,00:43:41,0.000,0.0,0.0,0.0
26/06/2022,00:44:41,-0.000,0.0,0.0,0.0
26/06/2022,00:45:41,0.000,0.0,0.0,0.0
26/06/2022,00:46:40,0.000,0.0,0.0,0.0
26/06/2022,00:47:41,0.000,0.0,0.0,0.0
26/06/2022,00:48:41,-0.000,0.0,0.0,0.0
26/06/2022,00:49:40,-0.000,0.0,0.0,0.0
26/06/2022,00:50:41,-0.001,0.0,0.0,0.0
26/06/2022,00:51:49,0.001,0.0,0.0,0.0
26/06/2022,00:52:41,0.000,0.0,0.0,0.0
26/06/2022,00:53:41,0.000,0.0,0.0,0.0
26/06/2022,00:54:50,0.000,0.0,0.0,0.0
26/06/2022,00:55:41,-0.000,0.0,0.0,0.0
26/06/2022,00:56:41,0.000,0.0,0.0,0.0
26/06/2022,00:57:41,0.000,0.0,0.0,0.0
26/06/2022,00:58:40,0.000,0.0,0.0,0.0
26/06/2022,00:59:41,0.000,0.0,0.0,0.0
26/06/2022,01:00:41,0.000,0.0,0.0,0.0
26/06/2022,01:01:41,0.000,0.0,0.0,0.0
26/06/2022,01:02:41,0.000,0.0,0.0,0.0
26/06/2022,01:03:41,0.002,0.0,0.0,0.0
26/06/2022,01:04:41,0.000,0.0,0.0,0.0
26/06/2022,01:05:41,0.001,0.0,0.0,0.0
26/06/2022,01:06:41,0.000,0.0,0.0,0.0
26/06/2022,01:07:40,0.000,0.0,0.0,0.0
26/06/2022,01:08:41,0.000,0.0,0.0,0.0
26/06/2022,01:09:41,0.000,0.0,0.0,0.0
26/06/2022,01:10:49,-0.000,0.0,0.0,0.0
26/06/2022,01:11:41,0.000,0.0,0.0,0.0
26/06/2022,01:12:41,0.000,0.0,0.0,0.0
26/06/2022,01:13:41,0.000,0.0,0.0,0.0
26/06/2022,01:14:41,0.001,0.0,0.0,0.0
26/06/2022,01:15:41,0.000,0.0,0.0,0.0
26/06/2022,01:16:41,0.000,0.0,0.0,0.0
26/06/2022,01:17:41,0.000,0.0,0.0,0.0
26/06/2022,01:18:41,0.001,0.0,0.0,0.0
26/06/2022,01:19:41,0.000,0.0,0.0,0.0
26/06/2022,01:20:41,0.000,0.0,0.0,0.0
26/06/2022,01:21:41,0.001,0.0,0.0,0.0
26/06/2022,01:22:41,-0.000,0.0,0.0,0.0
26/06/2022,01:23:41,0.001,0.0,0.0,0.0
26/06/2022,01:24:41,0.000,0.0,0.0,0.0
26/06/2022,01:25:49,0.001,0.0,0.0,0.0
26/06/2022,01:26:41,0.000,0.0,0.0,0.0
26/06/2022,01:27:41,0.000,0.0,0.0,0.0
26/06/2022,01:28:41,0.001,0.0,0.0,0.0
26/06/2022,01:29:41,0.001,0.0,0.0,0.0
26/06/2022,01:30:41,-0.000,0.0,0.0,0.0
26/06/2022,01:31:41,0.000,0.0,0.0,0.0
26/06/2022,01:32:41,0.001,0.0,0.0,0.0
26/06/2022,01:33:41,0.000,0.0,0.0,0.0
26/06/2022,01:34:41,0.000,0.0,0.0,0.0
26/06/2022,01:35:41,-0.001,0.0,0.0,0.0
26/06/2022,01:36:43,0.000,0.0,0.0,0.0
26/06/2022,01:37:41,0.000,0.0,0.0,0.0
26/06/2022,01:38:41,0.001,0.0,0.0,0.0
26/06/2022,01:39:41,0.000,0.0,0.0,0.0
26/06/2022,01:40:40,-0.000,0.0,0.0,0.0
26/06/2022,01:41:41,-0.001,0.0,0.0,0.0
26/06/2022,01:42:41,0.000,0.0,0.0,0.0
26/06/2022,01:43:40,0.001,0.0,0.0,0.0
26/06/2022,01:44:41,0.000,0.0,0.0,0.0
26/06/2022,01:45:41,0.000,0.0,0.0,0.0
26/06/2022,01:46:41,0.000,0.0,0.0,0.0
26/06/2022,01:47:41,0.001,0.0,0.0,0.0
26/06/2022,01:48:41,0.000,0.0,0.0,0.0
26/06/2022,01:49:41,0.000,0.0,0.0,0.0
26/06/2022,01:50:41,0.000,0.0,0.0,0.0
26/06/2022,01:51:41,0.001,0.0,0.0,0.0
26/06/2022,01:52:41,0.001,0.0,0.0,0.0
26/06/2022,01:53:41,0.001,0.0,0.0,0.0
26/06/2022,01:54:49,0.000,0.0,0.0,0.0
26/06/2022,01:55:41,0.001,0.0,0.0,0.0
26/06/2022,01:56:41,0.001,0.0,0.0,0.0
26/06/2022,01:57:49,0.001,0.0,0.0,0.0
26/06/2022,01:58:41,0.001,0.0,0.0,0.0
26/06/2022,01:59:41,0.001,0.0,0.0,0.0
26/06/2022,02:00:41,0.001,0.0,0.0,0.0
26/06/2022,02:01:40,0.000,0.0,0.0,0.0
26/06/2022,02:02:41,0.001,0.0,0.0,0.0
26/06/2022,02:03:41,0.001,0.0,0.0,0.0
26/06/2022,02:04:40,0.001,0.0,0.0,0.0
26/06/2022,02:05:41,0.001,0.0,0.0,0.0
26/06/2022,02:06:41,0.000,0.0,0.0,0.0
26/06/2022,02:07:49,0.001,0.0,0.0,0.0
26/06/2022,02:08:40,0.001,0.0,0.0,0.0
26/06/2022,02:09:41,-0.001,0.0,0.0,0.0
26/06/2022,02:10:40,0.001,0.0,0.0,0.0
26/06/2022,02:11:40,0.001,0.0,0.0,0.0
26/06/2022,02:12:41,0.001,0.0,0.0,0.0
26/06/2022,02:13:49,0.002,0.0,0.0,0.0
26/06/2022,02:14:41,-0.000,0.0,0.0,0.0
26/06/2022,02:15:41,0.000,0.0,0.0,0.0
26/06/2022,02:16:43,0.001,0.0,0.0,0.0
26/06/2022,02:17:41,0.001,0.0,0.0,0.0
26/06/2022,02:18:41,-0.000,0.0,0.0,0.0
26/06/2022,02:19:41,0.000,0.0,0.0,0.0
26/06/2022,02:20:41,0.001,0.0,0.0,0.0
26/06/2022,02:21:41,0.000,0.0,0.0,0.0
26/06/2022,02:22:41,0.001,0.0,0.0,0.0
26/06/2022,02:23:41,0.001,0.0,0.0,0.0
26/06/2022,02:24:41,0.001,0.0,0.0,0.0
26/06/2022,02:25:41,0.001,0.0,0.0,0.0
26/06/2022,02:26:41,0.001,0.0,0.0,0.0
26/06/2022,02:27:41,0.000,0.0,0.0,0.0
26/06/2022,02:28:41,0.000,0.0,0.0,0.0
26/06/2022,02:29:41,-0.000,0.0,0.0,0.0
26/06/2022,02:30:41,0.000,0.0,0.0,0.0
26/06/2022,02:31:41,0.000,0.0,0.0,0.0
26/06/2022,02:32:50,0.001,0.0,0.0,0.0
26/06/2022,02:34:42,0.001,0.0,0.0,0.0
26/06/2022,02:35:41,0.000,0.0,0.0,0.0
26/06/2022,02:36:41,0.001,0.0,0.0,0.0
26/06/2022,02:37:41,0.001,0.0,0.0,0.0
26/06/2022,02:38:41,0.000,0.0,0.0,0.0
26/06/2022,02:39:41,0.000,0.0,0.0,0.0
26/06/2022,02:40:41,0.000,0.0,0.0,0.0
26/06/2022,02:41:41,0.001,0.0,0.0,0.0
26/06/2022,02:42:41,0.001,0.0,0.0,0.0
26/06/2022,02:43:41,0.000,0.0,0.0,0.0
26/06/2022,02:44:41,0.002,0.0,0.0,0.0
26/06/2022,02:45:41,0.001,0.0,0.0,0.0
26/06/2022,02:46:41,0.001,0.0,0.0,0.0
26/06/2022,02:47:41,0.001,0.0,0.0,0.0
26/06/2022,02:48:41,0.001,0.0,0.0,0.0
26/06/2022,02:49:49,0.001,0.0,0.0,0.0
26/06/2022,02:50:41,0.000,0.0,0.0,0.0
26/06/2022,02:51:49,0.000,0.0,0.0,0.0
26/06/2022,02:52:49,0.000,0.0,0.0,0.0
26/06/2022,02:53:41,0.000,0.0,0.0,0.0
26/06/2022,02:54:41,-0.000,0.0,0.0,0.0
26/06/2022,02:55:41,0.001,0.0,0.0,0.0
26/06/2022,02:56:54,0.000,0.0,0.0,0.0
26/06/2022,02:58:41,0.001,0.0,0.0,0.0
26/06/2022,02:59:41,0.001,0.0,0.0,0.0
26/06/2022,03:00:41,0.002,0.0,0.0,0.0
26/06/2022,03:01:41,0.001,0.0,0.0,0.0
26/06/2022,03:02:41,-0.000,0.0,0.0,0.0
26/06/2022,03:03:41,0.001,0.0,0.0,0.0
26/06/2022,03:04:50,0.001,0.0,0.0,0.0
26/06/2022,03:06:50,-0.000,0.0,0.0,0.0
26/06/2022,03:07:40,0.001,0.0,0.0,0.0
26/06/2022,03:08:41,0.002,0.0,0.0,0.0
26/06/2022,03:09:41,0.001,0.0,0.0,0.0
26/06/2022,03:10:41,0.001,0.0,0.0,0.0
26/06/2022,03:11:41,0.000,0.0,0.0,0.0
26/06/2022,03:12:41,0.002,0.0,0.0,0.0
26/06/2022,03:13:41,0.001,0.0,0.0,0.0
26/06/2022,03:14:41,0.001,0.0,0.0,0.0
26/06/2022,03:15:41,0.001,0.0,0.0,0.0
26/06/2022,03:16:41,0.001,0.0,0.0,0.0
26/06/2022,03:17:41,0.001,0.0,0.0,0.0
26/06/2022,03:18:50,0.001,0.0,0.0,0.0
26/06/2022,03:19:41,0.001,0.0,0.0,0.0
26/06/2022,03:20:41,0.001,0.0,0.0,0.0
26/06/2022,03:21:41,0.001,0.0,0.0,0.0
26/06/2022,03:22:41,0.001,0.0,0.0,0.0
26/06/2022,03:23:41,0.000,0.0,0.0,0.0
26/06/2022,03:24:41,0.001,0.0,0.0,0.0
26/06/2022,03:25:41,0.000,0.0,0.0,0.0
26/06/2022,03:26:41,0.001,0.0,0.0,0.0
26/06/2022,03:27:41,0.001,0.0,0.0,0.0
26/06/2022,03:28:42,0.001,0.0,0.0,0.0
26/06/2022,03:29:54,0.001,0.0,0.0,0.0
26/06/2022,03:31:42,0.001,0.0,0.0,0.0
26/06/2022,03:32:41,0.001,0.0,0.0,0.0
26/06/2022,03:33:50,0.000,0.0,0.0,0.0
26/06/2022,03:34:49,0.002,0.0,0.0,0.0
26/06/2022,03:35:33,0.001,0.0,0.0,0.0
26/06/2022,03:36:42,0.000,0.0,0.0,0.0
26/06/2022,03:37:41,0.001,0.0,0.0,0.0
26/06/2022,03:38:41,0.001,0.0,0.0,0.0
26/06/2022,03:39:42,0.001,0.0,0.0,0.0
26/06/2022,03:40:41,0.002,0.0,0.0,0.0
26/06/2022,03:41:41,0.001,0.0,0.0,0.0
26/06/2022,03:42:41,0.001,0.0,0.0,0.0
26/06/2022,03:43:41,0.001,0.0,0.0,0.0
26/06/2022,03:44:41,0.002,0.0,0.0,0.0
26/06/2022,03:45:41,0.003,0.0,0.0,0.0
26/06/2022,03:46:41,0.002,0.0,0.0,0.0
26/06/2022,03:47:49,0.002,0.0,0.0,0.0
26/06/2022,03:48:41,0.002,0.0,0.0,0.0
26/06/2022,03:49:41,0.002,0.0,0.0,0.0
26/06/2022,03:50:42,0.002,0.0,0.0,0.0
26/06/2022,03:51:41,0.002,0.0,0.0,0.0
26/06/2022,03:52:41,0.002,0.0,0.0,0.0
26/06/2022,03:53:42,0.002,0.0,0.0,0.0
26/06/2022,03:54:41,0.003,0.0,0.0,0.0
26/06/2022,03:55:41,0.003,0.0,0.0,0.0
26/06/2022,03:56:41,0.002,0.0,0.0,0.0
26/06/2022,03:57:41,0.002,0.0,0.0,0.0
26/06/2022,03:58:41,0.003,0.0,0.0,0.0
26/06/2022,03:59:41,0.003,0.0,0.0,0.0
26/06/2022,04:00:57,0.003,0.0,0.0,0.0
26/06/2022,04:02:42,0.004,0.0,0.0,0.0
26/06/2022,04:03:41,0.003,0.0,0.0,0.0
26/06/2022,04:04:41,0.003,0.0,0.0,0.0
26/06/2022,04:05:41,0.004,0.0,0.0,0.0
26/06/2022,04:06:49,0.004,0.0,0.0,0.0
26/06/2022,04:07:41,0.004,0.0,0.0,0.0
26/06/2022,04:08:41,0.004,0.0,0.0,0.0
26/06/2022,04:09:49,0.004,0.0,0.0,0.0
26/06/2022,04:10:41,0.005,0.0,0.0,0.0
26/06/2022,04:11:41,0.005,0.0,0.0,0.0
26/06/2022,04:12:41,0.005,0.0,0.0,0.0
26/06/2022,04:13:42,0.005,0.0,0.0,0.0
26/06/2022,04:14:41,0.006,0.0,0.0,0.0
26/06/2022,04:15:41,0.006,0.0,0.0,0.0
26/06/2022,04:16:41,0.006,0.0,0.0,0.0
26/06/2022,04:17:42,0.006,0.0,0.0,0.0
26/06/2022,04:18:41,0.007,0.0,0.0,0.0
26/06/2022,04:19:41,0.006,0.0,0.0,0.0
26/06/2022,04:20:41,0.007,0.0,0.001,0.001
26/06/2022,04:21:41,0.007,0.0,0.001,0.0
26/06/2022,04:22:50,0.008,0.0,0.001,0.0
26/06/2022,04:23:41,0.007,0.0,0.001,0.0
26/06/2022,04:24:41,0.008,0.0,0.001,0.0
26/06/2022,04:25:42,0.009,0.0,0.001,0.0
26/06/2022,04:26:41,0.009,0.0,0.001,0.0
26/06/2022,04:27:42,0.009,0.0,0.001,0.0
26/06/2022,04:28:41,0.009,0.0,0.002,0.001
26/06/2022,04:29:41,0.010,0.0,0.002,0.0
26/06/2022,04:30:42,0.010,0.0,0.002,0.0
26/06/2022,04:31:41,0.010,0.0,0.002,0.0
26/06/2022,04:32:42,0.010,0.0,0.002,0.0
26/06/2022,04:33:42,0.011,0.0,0.002,0.0
26/06/2022,04:34:41,0.010,0.0,0.003,0.001
26/06/2022,04:35:50,0.010,0.0,0.003,0.0
26/06/2022,04:36:41,0.011,0.0,0.003,0.0
26/06/2022,04:37:41,0.012,0.0,0.003,0.0
26/06/2022,04:38:41,0.013,0.0,0.003,0.0
26/06/2022,04:39:41,0.013,0.0,0.004,0.001
26/06/2022,04:40:41,0.013,0.0,0.004,0.0
26/06/2022,04:41:41,0.013,0.0,0.004,0.0
26/06/2022,04:42:42,0.014,0.0,0.004,0.0
26/06/2022,04:43:41,0.015,0.0,0.005,0.001
26/06/2022,04:44:41,0.015,0.0,0.005,0.0
26/06/2022,04:45:49,0.015,0.0,0.005,0.0
26/06/2022,04:46:32,0.016,0.0,0.005,0.0
26/06/2022,04:47:42,0.017,0.0,0.006,0.001
26/06/2022,04:48:50,0.016,0.0,0.006,0.0
26/06/2022,04:49:41,0.017,0.0,0.006,0.0
26/06/2022,04:50:41,0.018,0.0,0.006,0.0
26/06/2022,04:51:41,0.019,0.0,0.007,0.001
26/06/2022,04:52:41,0.020,0.0,0.007,0.0
26/06/2022,04:53:42,0.019,0.0,0.007,0.0
26/06/2022,04:54:41,0.021,0.0,0.008,0.001
26/06/2022,04:55:41,0.021,0.0,0.008,0.0
26/06/2022,04:56:41,0.022,0.0,0.008,0.0
26/06/2022,04:57:42,0.023,0.0,0.009,0.001
26/06/2022,04:58:42,0.024,0.0,0.009,0.0
26/06/2022,04:59:41,0.025,0.0,0.01,0.001
26/06/2022,05:00:42,0.024,0.0,0.01,0.0
26/06/2022,05:01:42,0.025,0.0,0.01,0.0
26/06/2022,05:02:49,0.027,0.0,0.011,0.001
26/06/2022,05:03:41,0.028,0.0,0.011,0.0
26/06/2022,05:04:41,0.028,0.0,0.012,0.001
26/06/2022,05:05:41,0.029,0.0,0.012,0.0
26/06/2022,05:06:41,0.030,0.0,0.013,0.001
26/06/2022,05:07:42,0.030,0.0,0.013,0.0
26/06/2022,05:08:41,0.031,0.0,0.014,0.001
26/06/2022,05:09:42,0.031,0.0,0.014,0.0
26/06/2022,05:10:42,0.032,0.0,0.015,0.001
26/06/2022,05:11:41,0.032,0.0,0.015,0.0
26/06/2022,05:12:41,0.034,0.0,0.016,0.001
26/06/2022,05:13:41,0.034,0.0,0.016,0.0
26/06/2022,05:14:41,0.034,0.0,0.017,0.001
26/06/2022,05:15:51,0.035,0.0,0.018,0.001
26/06/2022,05:16:41,0.036,0.0,0.018,0.0
26/06/2022,05:17:57,0.037,0.0,0.019,0.001
26/06/2022,05:19:42,0.037,0.0,0.02,0.001
26/06/2022,05:20:41,0.037,0.0,0.021,0.001
26/06/2022,05:21:41,0.039,0.0,0.021,0.0
26/06/2022,05:22:41,0.043,0.0,0.022,0.001
26/06/2022,05:23:41,0.044,0.0,0.023,0.001
26/06/2022,05:24:43,0.045,0.0,0.023,0.0
26/06/2022,05:25:41,0.047,0.0,0.024,0.001
26/06/2022,05:26:41,0.049,0.0,0.025,0.001
26/06/2022,05:27:41,0.050,0.0,0.026,0.001
26/06/2022,05:28:41,0.051,0.0,0.027,0.001
26/06/2022,05:29:42,0.052,0.0,0.028,0.001
26/06/2022,05:30:41,0.053,0.0,0.028,0.0
26/06/2022,05:31:50,0.054,0.0,0.029,0.001
26/06/2022,05:32:41,0.057,0.0,0.03,0.001
26/06/2022,05:33:41,0.058,0.0,0.031,0.001
26/06/2022,05:34:50,0.060,0.0,0.032,0.001
26/06/2022,05:35:42,0.061,0.0,0.033,0.001
26/06/2022,05:36:41,0.063,0.0,0.034,0.001
26/06/2022,05:37:43,0.064,0.0,0.035,0.001
26/06/2022,05:38:41,0.065,0.0,0.036,0.001
26/06/2022,05:39:42,0.067,0.0,0.038,0.002
26/06/2022,05:40:41,0.069,0.0,0.039,0.001
26/06/2022,05:41:41,0.071,0.0,0.04,0.001
26/06/2022,05:42:42,0.072,0.0,0.041,0.001
26/06/2022,05:43:41,0.074,0.0,0.042,0.001
26/06/2022,05:44:49,0.076,0.0,0.044,0.002
26/06/2022,05:45:33,0.078,0.0,0.044,0.0
26/06/2022,05:46:42,0.079,0.0,0.046,0.002
26/06/2022,05:47:50,0.082,0.0,0.048,0.002
26/06/2022,05:48:41,0.082,0.0,0.049,0.001
26/06/2022,05:49:41,0.084,0.0,0.05,0.001
26/06/2022,05:50:42,0.086,0.0,0.052,0.002
26/06/2022,05:51:41,0.088,0.0,0.053,0.001
26/06/2022,05:52:42,0.090,0.0,0.054,0.001
26/06/2022,05:53:42,0.091,0.0,0.056,0.002
26/06/2022,05:54:41,0.093,0.0,0.057,0.001
26/06/2022,05:55:41,0.095,0.0,0.059,0.002
26/06/2022,05:56:41,0.097,0.0,0.061,0.002
26/06/2022,05:57:41,0.099,0.0,0.062,0.001
26/06/2022,05:58:42,0.101,0.0,0.064,0.002
26/06/2022,05:59:42,0.103,0.0,0.066,0.002
26/06/2022,06:00:41,0.105,0.0,0.067,0.001
26/06/2022,06:01:41,0.108,0.0,0.069,0.002
26/06/2022,06:02:43,0.110,0.0,0.071,0.002
26/06/2022,06:03:50,0.112,0.0,0.073,0.002
26/06/2022,06:04:41,0.114,0.0,0.075,0.002
26/06/2022,06:05:41,0.116,0.0,0.077,0.002
26/06/2022,06:06:41,0.117,0.0,0.079,0.002
26/06/2022,06:07:42,0.120,0.0,0.081,0.002
26/06/2022,06:08:41,0.123,0.0,0.083,0.002
26/06/2022,06:09:43,0.125,0.0,0.085,0.002
26/06/2022,06:10:41,0.127,0.0,0.087,0.002
26/06/2022,06:11:41,0.131,0.0,0.089,0.002
26/06/2022,06:12:41,0.132,0.0,0.091,0.002
26/06/2022,06:13:42,0.134,0.0,0.093,0.002
26/06/2022,06:14:42,0.138,0.0,0.096,0.003
26/06/2022,06:15:41,0.140,0.0,0.098,0.002
26/06/2022,06:16:50,0.144,0.0,0.101,0.003
26/06/2022,06:17:42,0.145,0.0,0.103,0.002
26/06/2022,06:18:41,0.148,0.0,0.105,0.002
26/06/2022,06:19:41,0.151,0.0,0.108,0.003
26/06/2022,06:20:41,0.153,0.0,0.11,0.002
26/06/2022,06:21:41,0.155,0.0,0.113,0.003
26/06/2022,06:22:49,0.161,0.0,0.116,0.003
26/06/2022,06:23:42,0.162,0.0,0.118,0.002
26/06/2022,06:24:41,0.165,0.0,0.121,0.003
26/06/2022,06:25:41,0.168,0.0,0.124,0.003
26/06/2022,06:26:50,0.171,0.0,0.127,0.003
26/06/2022,06:27:41,0.174,0.0,0.129,0.002
26/06/2022,06:28:41,0.177,0.0,0.132,0.003
26/06/2022,06:29:41,0.180,0.0,0.135,0.003
26/06/2022,06:30:49,0.184,0.0,0.139,0.004
26/06/2022,06:31:41,0.187,0.0,0.141,0.002
26/06/2022,06:32:57,0.189,0.0,0.145,0.004
26/06/2022,06:34:50,0.196,0.0,0.151,0.006
26/06/2022,06:35:41,0.198,0.0,0.154,0.003
26/06/2022,06:36:59,0.204,0.0,0.158,0.004
26/06/2022,06:38:42,0.209,0.0,0.164,0.006
26/06/2022,06:39:42,0.213,0.0,0.168,0.004
26/06/2022,06:40:43,0.216,0.0,0.172,0.004
26/06/2022,06:41:42,0.220,1.0,0.175,0.003
26/06/2022,06:42:42,0.224,1.0,0.179,0.004
26/06/2022,06:43:42,0.229,1.0,0.182,0.003
26/06/2022,06:44:41,0.230,1.0,0.186,0.004
26/06/2022,06:45:41,0.235,1.0,0.19,0.004
26/06/2022,06:46:41,0.241,1.0,0.194,0.004
26/06/2022,06:47:42,0.244,1.0,0.198,0.004
26/06/2022,06:48:41,0.248,1.0,0.202,0.004
26/06/2022,06:49:42,0.252,1.0,0.206,0.004
26/06/2022,06:50:41,0.237,1.0,0.211,0.005
26/06/2022,06:51:41,0.259,1.0,0.215,0.004
26/06/2022,06:52:32,0.262,1.0,0.218,0.003
26/06/2022,06:53:42,0.266,1.0,0.223,0.005
26/06/2022,06:54:41,0.224,1.0,0.227,0.004
26/06/2022,06:55:41,0.276,1.0,0.232,0.005
26/06/2022,06:56:41,0.234,1.0,0.236,0.004
26/06/2022,06:57:41,0.283,1.0,0.241,0.005
26/06/2022,06:58:41,0.290,1.0,0.245,0.004
26/06/2022,06:59:41,0.293,1.0,0.25,0.005
26/06/2022,07:00:42,0.281,1.0,0.254,0.004
26/06/2022,07:01:42,0.284,1.0,0.259,0.005
26/06/2022,07:02:43,0.308,1.0,0.263,0.004
26/06/2022,07:03:41,0.254,1.0,0.268,0.005
26/06/2022,07:04:41,0.318,1.0,0.273,0.005
26/06/2022,07:05:42,0.323,1.0,0.278,0.005
26/06/2022,07:06:41,0.267,1.0,0.283,0.005
26/06/2022,07:07:41,0.333,1.0,0.288,0.005
26/06/2022,07:08:41,0.339,1.0,0.294,0.006
26/06/2022,07:09:41,0.346,1.0,0.3,0.006
26/06/2022,07:10:42,0.347,1.0,0.305,0.005
26/06/2022,07:11:42,0.355,1.0,0.311,0.006
26/06/2022,07:12:50,0.362,1.0,0.318,0.007
26/06/2022,07:13:41,0.359,1.0,0.323,0.005
26/06/2022,07:14:50,0.368,1.0,0.329,0.006
26/06/2022,07:16:51,0.283,1.0,0.341,0.012
26/06/2022,07:17:41,0.385,1.0,0.346,0.005
26/06/2022,07:18:42,0.400,1.0,0.352,0.006
26/06/2022,07:19:41,0.404,1.0,0.359,0.007
26/06/2022,07:20:41,0.314,1.0,0.365,0.006
26/06/2022,07:21:41,0.409,1.0,0.372,0.007
26/06/2022,07:22:42,0.359,1.0,0.378,0.006
26/06/2022,07:23:41,0.405,1.0,0.384,0.006
26/06/2022,07:24:42,0.397,1.0,0.39,0.006
26/06/2022,07:25:49,0.426,1.0,0.398,0.008
26/06/2022,07:26:42,0.337,1.0,0.404,0.006
26/06/2022,07:27:41,0.406,1.0,0.41,0.006
26/06/2022,07:28:50,0.420,1.0,0.417,0.007
26/06/2022,07:29:41,0.321,1.0,0.422,0.005
26/06/2022,07:30:41,0.328,1.0,0.428,0.006
26/06/2022,07:31:41,0.456,1.0,0.435,0.007
26/06/2022,07:32:42,0.408,1.0,0.442,0.007
26/06/2022,07:33:50,0.398,1.0,0.448,0.006
26/06/2022,07:34:51,0.305,1.0,0.454,0.006
26/06/2022,07:35:41,0.356,1.0,0.459,0.005
26/06/2022,07:36:42,0.321,1.0,0.465,0.006
26/06/2022,07:37:57,0.302,1.0,0.472,0.007
26/06/2022,07:39:42,0.350,1.0,0.482,0.01
26/06/2022,07:40:41,0.365,1.0,0.488,0.006
26/06/2022,07:41:42,0.369,1.0,0.495,0.007
26/06/2022,07:42:41,0.383,1.0,0.501,0.006
26/06/2022,07:43:41,0.383,1.0,0.507,0.006
26/06/2022,07:44:50,0.378,1.0,0.515,0.008
26/06/2022,07:45:41,0.378,1.0,0.521,0.006
26/06/2022,07:46:41,0.396,1.0,0.527,0.006
26/06/2022,07:47:50,0.379,1.0,0.534,0.007
26/06/2022,07:48:42,0.393,1.0,0.54,0.006
26/06/2022,07:49:41,0.593,1.0,0.547,0.007
26/06/2022,07:50:42,0.433,1.0,0.557,0.01
26/06/2022,07:51:42,0.454,1.0,0.564,0.007
26/06/2022,07:52:42,0.674,2.0,0.572,0.008
26/06/2022,07:53:41,0.491,1.0,0.582,0.01
26/06/2022,07:54:42,0.586,1.0,0.591,0.009
26/06/2022,07:55:42,0.488,1.0,0.6,0.009
26/06/2022,07:56:42,0.501,1.0,0.608,0.008
26/06/2022,07:57:50,0.632,1.0,0.619,0.011
26/06/2022,07:58:41,0.549,1.0,0.627,0.008
26/06/2022,07:59:41,0.619,1.0,0.636,0.009
26/06/2022,08:00:51,0.600,1.0,0.647,0.011
26/06/2022,08:01:42,0.592,1.0,0.656,0.009
26/06/2022,08:02:41,0.676,2.0,0.666,0.01
26/06/2022,08:03:42,0.736,2.0,0.677,0.011
26/06/2022,08:04:42,0.612,1.0,0.688,0.011
26/06/2022,08:05:42,0.723,2.0,0.7,0.012
26/06/2022,08:06:43,0.808,2.0,0.713,0.013
26/06/2022,08:07:41,0.775,2.0,0.726,0.013
26/06/2022,08:08:42,0.581,1.0,0.737,0.011
26/06/2022,08:09:41,0.543,1.0,0.747,0.01
26/06/2022,08:10:41,0.483,1.0,0.755,0.008
26/06/2022,08:11:41,0.480,1.0,0.763,0.008
26/06/2022,08:12:42,0.470,1.0,0.771,0.008
26/06/2022,08:13:42,0.465,1.0,0.779,0.008
26/06/2022,08:14:42,0.456,1.0,0.787,0.008
26/06/2022,08:15:42,0.464,1.0,0.794,0.007
26/06/2022,08:16:49,0.563,1.0,0.804,0.01
26/06/2022,08:18:50,0.567,1.0,0.822,0.018
26/06/2022,08:19:41,0.587,1.0,0.831,0.009
26/06/2022,08:20:42,0.576,1.0,0.84,0.009
26/06/2022,08:21:41,0.785,2.0,0.851,0.011
26/06/2022,08:22:41,0.685,2.0,0.863,0.012
26/06/2022,08:23:41,0.595,1.0,0.874,0.011
26/06/2022,08:24:41,0.537,1.0,0.884,0.01
26/06/2022,08:25:42,0.514,1.0,0.893,0.009
26/06/2022,08:26:42,0.525,1.0,0.901,0.008
26/06/2022,08:27:42,0.544,1.0,0.91,0.009
26/06/2022,08:28:41,0.560,1.0,0.919,0.009
26/06/2022,08:29:42,0.551,1.0,0.929,0.01
26/06/2022,08:30:42,0.503,1.0,0.938,0.009
26/06/2022,08:31:41,0.452,1.0,0.946,0.008
26/06/2022,08:32:41,0.365,1.0,0.952,0.006
26/06/2022,08:33:42,0.296,1.0,0.958,0.006
26/06/2022,08:34:42,0.264,1.0,0.962,0.004
26/06/2022,08:35:42,0.259,1.0,0.967,0.005
26/06/2022,08:36:42,0.300,1.0,0.971,0.004
26/06/2022,08:37:41,0.348,1.0,0.977,0.006
26/06/2022,08:38:41,0.365,1.0,0.983,0.006
26/06/2022,08:39:42,0.343,1.0,0.989,0.006
26/06/2022,08:40:41,0.316,1.0,0.994,0.005
26/06/2022,08:41:42,0.331,1.0,1.0,0.006
26/06/2022,08:42:42,0.361,1.0,1.005,0.005
26/06/2022,08:43:50,0.350,1.0,1.012,0.007
26/06/2022,08:44:41,0.333,1.0,1.017,0.005
26/06/2022,08:45:41,0.327,1.0,1.023,0.006
26/06/2022,08:46:41,0.346,1.0,1.028,0.005
26/06/2022,08:47:41,0.395,1.0,1.034,0.006
26/06/2022,08:48:42,0.442,1.0,1.041,0.007
26/06/2022,08:49:42,0.507,1.0,1.049,0.008
26/06/2022,08:50:42,0.558,1.0,1.058,0.009
26/06/2022,08:51:42,0.556,1.0,1.068,0.01
26/06/2022,08:52:41,0.513,1.0,1.076,0.008
26/06/2022,08:53:42,0.479,1.0,1.085,0.009
26/06/2022,08:54:41,0.484,1.0,1.093,0.008
26/06/2022,08:55:41,0.514,1.0,1.101,0.008
26/06/2022,08:56:42,0.537,1.0,1.11,0.009
26/06/2022,08:57:41,0.553,1.0,1.119,0.009
26/06/2022,08:58:42,0.588,1.0,1.128,0.009
26/06/2022,08:59:42,0.625,1.0,1.138,0.01
26/06/2022,09:00:42,0.628,1.0,1.149,0.011
26/06/2022,09:01:42,0.629,1.0,1.159,0.01
26/06/2022,09:02:42,0.644,1.0,1.17,0.011
26/06/2022,09:03:42,0.644,1.0,1.181,0.011
26/06/2022,09:04:41,0.632,1.0,1.191,0.01
26/06/2022,09:05:42,0.608,1.0,1.202,0.011
26/06/2022,09:06:42,0.579,1.0,1.212,0.01
26/06/2022,09:07:41,0.559,1.0,1.221,0.009
26/06/2022,09:08:41,0.556,1.0,1.23,0.009
26/06/2022,09:09:42,0.585,1.0,1.24,0.01
26/06/2022,09:10:44,0.632,1.0,1.25,0.01
26/06/2022,09:11:42,0.693,2.0,1.261,0.011
26/06/2022,09:12:41,0.730,2.0,1.273,0.012
26/06/2022,09:13:42,0.730,2.0,1.285,0.012
26/06/2022,09:14:42,0.705,2.0,1.297,0.012
26/06/2022,09:15:42,0.679,2.0,1.309,0.012
26/06/2022,09:16:41,0.679,2.0,1.318,0.009
26/06/2022,09:17:42,0.711,2.0,1.33,0.012
26/06/2022,09:18:42,0.952,2.0,1.344,0.014
26/06/2022,09:19:41,0.761,2.0,1.357,0.013
26/06/2022,09:20:42,0.761,2.0,1.37,0.013
26/06/2022,09:21:42,0.781,2.0,1.383,0.013
26/06/2022,09:22:41,0.774,2.0,1.396,0.013
26/06/2022,09:23:41,0.788,2.0,1.409,0.013
26/06/2022,09:24:42,0.979,2.0,1.424,0.015
26/06/2022,09:25:41,0.877,2.0,1.441,0.017
26/06/2022,09:26:42,1.142,3.0,1.455,0.014
26/06/2022,09:27:42,0.957,2.0,1.471,0.016
26/06/2022,09:28:42,1.349,3.0,1.491,0.02
26/06/2022,09:29:35,1.392,3.0,1.511,0.02
26/06/2022,09:30:42,1.406,3.0,1.537,0.026
26/06/2022,09:31:42,1.416,3.0,1.561,0.024
26/06/2022,09:32:43,1.422,3.0,1.585,0.024
26/06/2022,09:33:42,1.427,3.0,1.608,0.023
26/06/2022,09:34:42,1.434,3.0,1.632,0.024
26/06/2022,09:35:42,1.441,3.0,1.656,0.024
26/06/2022,09:36:41,1.450,3.0,1.68,0.024
26/06/2022,09:37:41,1.460,3.0,1.704,0.024
26/06/2022,09:38:42,1.469,3.0,1.729,0.025
26/06/2022,09:39:42,1.477,3.0,1.753,0.024
26/06/2022,09:40:50,1.491,3.0,1.781,0.028
26/06/2022,09:41:50,1.507,3.0,1.806,0.025
26/06/2022,09:42:42,1.520,3.0,1.828,0.022
26/06/2022,09:43:42,1.540,4.0,1.854,0.026
26/06/2022,09:44:41,1.454,3.0,1.879,0.025
26/06/2022,09:45:42,1.396,3.0,1.903,0.024
26/06/2022,09:46:42,1.569,4.0,1.93,0.027
26/06/2022,09:47:42,1.573,4.0,1.956,0.026
26/06/2022,09:48:42,1.578,4.0,1.982,0.026
26/06/2022,09:49:42,1.597,4.0,2.009,0.027
26/06/2022,09:50:42,1.608,4.0,2.035,0.026
26/06/2022,09:51:42,1.624,4.0,2.062,0.027
26/06/2022,09:52:41,1.142,3.0,2.086,0.024
26/06/2022,09:53:42,1.362,3.0,2.11,0.024
26/06/2022,09:54:42,1.622,4.0,2.135,0.025
26/06/2022,09:55:41,1.541,4.0,2.161,0.026
26/06/2022,09:56:42,0.959,2.0,2.185,0.024
26/06/2022,09:57:42,0.942,2.0,2.201,0.016
26/06/2022,09:58:42,1.491,3.0,2.223,0.022
26/06/2022,09:59:50,1.717,4.0,2.25,0.027
26/06/2022,10:00:42,1.665,4.0,2.275,0.025
26/06/2022,10:01:42,1.635,4.0,2.298,0.023
26/06/2022,10:02:42,1.064,2.0,2.321,0.023
26/06/2022,10:03:42,1.766,4.0,2.341,0.02
26/06/2022,10:04:42,1.630,4.0,2.371,0.03
26/06/2022,10:05:41,1.430,3.0,2.398,0.027
26/06/2022,10:06:41,1.768,4.0,2.424,0.026
26/06/2022,10:07:41,1.761,4.0,2.454,0.03
26/06/2022,10:08:41,1.761,4.0,2.483,0.029
26/06/2022,10:09:42,1.769,4.0,2.512,0.029
26/06/2022,10:10:41,1.775,4.0,2.542,0.03
26/06/2022,10:11:41,1.789,4.0,2.572,0.03
26/06/2022,10:12:50,1.809,4.0,2.606,0.034
26/06/2022,10:13:41,1.823,4.0,2.632,0.026
26/06/2022,10:14:42,1.863,4.0,2.663,0.031